(327227) = 2005 QH108

Discovered at Palomar on 2005-08-27 by NEAT.

Orbit

Orbit type: Main Belt

Note: WebGL enabled browser required.

epoch2023-02-25.0
epoch JD2460000.5
perihelion date2020-05-06.22826
perihelion JD2458975.72826
argument of perihelion (°)94.13466
ascending node (°)193.17135
inclination (°)3.96894
eccentricity0.1884925
perihelion distance (AU)1.9697087
Tisserand w.r.t. Jupiter3.5
ΔV w.r.t. Earth (km/sec)8.8
semimajor axis (AU)2.4272218
mean anomaly (°)267.09564
mean daily motion (°/day)0.26063920
aphelion distance (AU)2.885
period (years)3.78
P-vector [x]0.29692998
P-vector [y]-0.90127114
P-vector [z]-0.31550424
Q-vector [x]0.95476900
Q-vector [y]0.27475865
Q-vector [z]0.11368309
absolute magnitude17.21
phase slope0.15
uncertainty0
referenceMPO 745323
observations used375
oppositions10
arc length (days)6442
first opposition used2005
last opposition used2023
residual rms (arc-secs)0.81
perturbers coarse indicatorM-v
perturbers precise indicator003Ek
first observation date used2005-08-27.0
last observation date used2023-04-17.0
computer nameMPCLINUX
JD of orbit computation2456639.551613
perihelion JD uncertainty (days)1.1583E-04
argument of perihelion uncertainty (°)7.0258E-05
ascending node uncertainty (°)6.2309E-05
inclination uncertainty (°)8.1625E-06
eccentricity uncertainty 4.7407E-08
perihelion distance uncertainty (AU)1.2772E-07
Minimum Orbit Intersection Distances (in AU)
for orbit epoch: 2460000.5, reference: E2023-HA3
Mercury1.52089
Venus1.24758
Earth0.95755
Mars0.5437
Jupiter2.28129
Saturn6.1971
Uranus15.731
Neptune27.2053

Observations

387 total observations over interval: 2005 08 27.43285 – 2023 04 17.297076
These data are available for download (format description).

Date (UT) J2000 RA J2000 Dec Magn Location Ref
2005 08 27.43285 23 34 55.99 +01 05 17.9 19.7   644 – Palomar Mountain/NEAT MPS 140358
2005 08 27.45422 23 34 55.02 +01 05 09.7 19.3   644 – Palomar Mountain/NEAT MPS 140358
2005 08 27.47669 23 34 54.02 +01 05 01.0 19.5   644 – Palomar Mountain/NEAT MPS 140358
2005 08 30.29610 23 32 49.65 +00 46 02.9 19.9 V 691 – Steward Observatory, Kitt Peak-Spacewatch MPS 140358
2005 08 30.31339 23 32 48.82 +00 45 55.5 20.1 V 691 – Steward Observatory, Kitt Peak-Spacewatch MPS 140358
2005 08 30.33072 23 32 47.98 +00 45 48.5 20.0 V 691 – Steward Observatory, Kitt Peak-Spacewatch MPS 140358
2005 09 06.19499 23 27 18.40 -00 04 59.0 19.1 R 699 – Lowell Observatory-LONEOS MPS 141173
2005 09 06.21673 23 27 17.30 -00 05 07.9   699 – Lowell Observatory-LONEOS MPS 141173
2005 09 06.23850 23 27 16.09 -00 05 18.9   699 – Lowell Observatory-LONEOS MPS 141173
2005 09 06.26025 23 27 14.99 -00 05 27.8   699 – Lowell Observatory-LONEOS MPS 141173
2005 09 06.29010 23 27 13.36 -00 05 42.7 18.0   704 – Lincoln Laboratory ETS, New Mexico MPS 141173
2005 09 06.30125 23 27 12.74 -00 05 47.3 19.6   704 – Lincoln Laboratory ETS, New Mexico MPS 141173
2005 09 06.31239 23 27 12.21 -00 05 53.3 19.4   704 – Lincoln Laboratory ETS, New Mexico MPS 141173
2005 09 06.32354 23 27 11.58 -00 05 57.7 19.2   704 – Lincoln Laboratory ETS, New Mexico MPS 141173
2005 09 06.33478 23 27 11.00 -00 06 02.8 19.1   704 – Lincoln Laboratory ETS, New Mexico MPS 141173
2005 09 08.27755 23 25 33.75 -00 21 17.4 19.5   704 – Lincoln Laboratory ETS, New Mexico MPS 141173
2005 09 08.28927 23 25 33.06 -00 21 22.3 19.5   704 – Lincoln Laboratory ETS, New Mexico MPS 141173
2005 09 08.30045 23 25 32.50 -00 21 28.6 19.1   704 – Lincoln Laboratory ETS, New Mexico MPS 141173
2005 09 13.30163 23 21 20.17 -01 01 30.4 19.4 V 691 – Steward Observatory, Kitt Peak-Spacewatch MPS 141766
2005 09 13.32585 23 21 18.89 -01 01 42.2 19.4 V 691 – Steward Observatory, Kitt Peak-Spacewatch MPS 141766
2005 09 13.34377 23 21 17.94 -01 01 50.8 19.4 V 691 – Steward Observatory, Kitt Peak-Spacewatch MPS 141766
2005 09 29.19282 23 09 22.78 -03 03 40.7 19.2 R 699 – Lowell Observatory-LONEOS MPS 142719
2005 09 29.21563 23 09 22.06 -03 03 49.1   699 – Lowell Observatory-LONEOS MPS 142719
2005 09 29.23841 23 09 20.95 -03 04 00.0   699 – Lowell Observatory-LONEOS MPS 142719
2005 09 29.26124 23 09 20.07 -03 04 09.2   699 – Lowell Observatory-LONEOS MPS 142719
2005 10 01.10824 23 08 13.97 -03 16 41.8 20.0 V 691 – Steward Observatory, Kitt Peak-Spacewatch MPS 144059
2005 10 01.12367 23 08 13.41 -03 16 48.4 20.2 V 691 – Steward Observatory, Kitt Peak-Spacewatch MPS 144059
2005 10 01.13919 23 08 12.84 -03 16 54.7 20.2 V 691 – Steward Observatory, Kitt Peak-Spacewatch MPS 144059
2005 12 02.08242 23 23 05.17 -04 05 06.9 21.7 V G96 – Mt. Lemmon Survey MPS 153709
2005 12 02.09046 23 23 05.64 -04 05 04.9 21.5 V G96 – Mt. Lemmon Survey MPS 153709
2005 12 02.09851 23 23 06.07 -04 05 02.4 21.7 V G96 – Mt. Lemmon Survey MPS 153709
2005 12 02.10654 23 23 06.50 -04 05 00.0 21.7 V G96 – Mt. Lemmon Survey MPS 153709
2008 03 27.27306 12 57 28.54 -06 19 52.0 19.4 V G96 – Mt. Lemmon Survey MPS 246757
2008 03 27.28086 12 57 28.00 -06 19 48.8 20.1 V G96 – Mt. Lemmon Survey MPS 246757
2008 03 27.28869 12 57 27.64 -06 19 45.9 20.1 V G96 – Mt. Lemmon Survey MPS 246757
2008 03 27.29653 12 57 27.21 -06 19 42.0 20.5 V G96 – Mt. Lemmon Survey MPS 246757
2008 04 03.31581 12 51 17.20 -05 26 36.4 19.9 V G96 – Mt. Lemmon Survey MPS 246757
2008 04 03.32360 12 51 16.77 -05 26 32.8 19.7 V G96 – Mt. Lemmon Survey MPS 246757
2008 04 03.33145 12 51 16.34 -05 26 29.0 20.0 V G96 – Mt. Lemmon Survey MPS 246757
2008 04 03.33933 12 51 15.87 -05 26 25.5 19.8 V G96 – Mt. Lemmon Survey MPS 246757
2008 04 07.25093 12 47 44.30 -04 55 54.6 19.7 V G96 – Mt. Lemmon Survey MPS 246757
2008 04 07.25680 12 47 43.98 -04 55 52.0 19.6 V G96 – Mt. Lemmon Survey MPS 246757
2008 04 07.26265 12 47 43.69 -04 55 49.6 19.6 V G96 – Mt. Lemmon Survey MPS 246757
2008 04 07.26855 12 47 43.33 -04 55 46.8 19.7 V G96 – Mt. Lemmon Survey MPS 246757
2008 04 09.17876 12 46 00.51 -04 40 52.0 20.5 V 691 – Steward Observatory, Kitt Peak-Spacewatch MPS 246757
2008 04 09.19639 12 45 59.51 -04 40 43.6 20.4 V 691 – Steward Observatory, Kitt Peak-Spacewatch MPS 246757
2008 04 09.21403 12 45 58.52 -04 40 36.0 20.3 V 691 – Steward Observatory, Kitt Peak-Spacewatch MPS 246757
2008 05 04.19186 12 27 54.90 -01 55 13.8 20.6 V G96 – Mt. Lemmon Survey MPS 248970
2008 05 04.19635 12 27 54.75 -01 55 12.3 20.2 V G96 – Mt. Lemmon Survey MPS 248970
2008 05 04.20080 12 27 54.57 -01 55 11.3 20.8 V G96 – Mt. Lemmon Survey MPS 248970
2008 05 04.20518 12 27 54.46 -01 55 10.0 20.4 V G96 – Mt. Lemmon Survey MPS 248970
2009 09 15.39050 01 57 06.21 +11 42 38.2 20.2 V 691 – Steward Observatory, Kitt Peak-Spacewatch MPS 295829
2009 09 15.40817 01 57 05.70 +11 42 33.5 20.2 V 691 – Steward Observatory, Kitt Peak-Spacewatch MPS 295829
2009 09 15.42587 01 57 05.19 +11 42 28.5 20.4 V 691 – Steward Observatory, Kitt Peak-Spacewatch MPS 295829
2009 09 23.34999 01 52 43.59 +11 02 05.7 20.2 V 691 – Steward Observatory, Kitt Peak-Spacewatch MPS 295829
2009 09 23.36766 01 52 42.84 +11 01 59.8 20.4 V 691 – Steward Observatory, Kitt Peak-Spacewatch MPS 295829
2009 09 23.38536 01 52 42.10 +11 01 53.7 20.2 V 691 – Steward Observatory, Kitt Peak-Spacewatch MPS 295830
2009 09 27.34917 01 49 56.15 +10 38 09.0 21.0 V 691 – Steward Observatory, Kitt Peak-Spacewatch MPS 296924
2009 09 27.36683 01 49 55.36 +10 38 02.2 21.0 V 691 – Steward Observatory, Kitt Peak-Spacewatch MPS 296924
2009 09 27.38448 01 49 54.48 +10 37 56.0 20.7 V 691 – Steward Observatory, Kitt Peak-Spacewatch MPS 296924
2009 10 14.26103 01 35 19.82 +08 39 54.8 20.0 V 703 – Catalina Sky Survey MPS 298315
2009 10 14.26765 01 35 19.42 +08 39 52.0 19.8 V 703 – Catalina Sky Survey MPS 298315
2009 10 14.27439 01 35 19.06 +08 39 48.6 19.9 V 703 – Catalina Sky Survey MPS 298315
2009 10 14.28120 01 35 18.60 +08 39 45.2 19.9 V 703 – Catalina Sky Survey MPS 298315
2009 10 23.30498 01 27 00.25 +07 34 17.7 20.4 V G96 – Mt. Lemmon Survey MPS 300675
2009 10 23.31413 01 26 59.74 +07 34 13.7 20.1 V G96 – Mt. Lemmon Survey MPS 300675
2009 10 23.32311 01 26 59.24 +07 34 10.1 20.1 V G96 – Mt. Lemmon Survey MPS 300675
2009 10 23.33215 01 26 58.74 +07 34 06.3 20.1 V G96 – Mt. Lemmon Survey MPS 300675
2009 10 27.27855 01 23 33.57 +07 07 07.5 20.3 V G96 – Mt. Lemmon Survey MPS 300675
2009 10 27.28514 01 23 33.21 +07 07 04.9 20.4 V G96 – Mt. Lemmon Survey MPS 300675
2009 10 27.29196 01 23 32.82 +07 07 02.2 19.9 V G96 – Mt. Lemmon Survey MPS 300675
2009 10 27.29854 01 23 32.49 +07 06 59.4 20.0 V G96 – Mt. Lemmon Survey MPS 300675
2012 02 25.47565 15 15 25.09 -16 56 41.3 21.0 V G96 – Mt. Lemmon Survey MPS 414178
2012 02 25.48255 15 15 25.48 -16 56 42.0 21.0 V G96 – Mt. Lemmon Survey MPS 414178
2012 02 25.48939 15 15 25.84 -16 56 42.8 20.9 V G96 – Mt. Lemmon Survey MPS 414178
2012 02 25.49635 15 15 26.24 -16 56 44.1 20.7 V G96 – Mt. Lemmon Survey MPS 414178
2012 04 20.35134 15 27 41.90 -15 12 34.1 20.1 V 691 – Steward Observatory, Kitt Peak-Spacewatch MPS 420820
2012 04 20.36912 15 27 41.24 -15 12 27.2 21.3 V 691 – Steward Observatory, Kitt Peak-Spacewatch MPS 420820
2012 04 20.38690 15 27 40.55 -15 12 22.3 20.0 V 691 – Steward Observatory, Kitt Peak-Spacewatch MPS 420820
2012 04 24.32693 15 25 08.84 -14 50 36.4 19.9 V 691 – Steward Observatory, Kitt Peak-Spacewatch MPS 421872
2012 04 24.34476 15 25 08.03 -14 50 30.3 19.7 V 691 – Steward Observatory, Kitt Peak-Spacewatch MPS 421872
2012 04 24.36258 15 25 07.24 -14 50 24.5 19.7 V 691 – Steward Observatory, Kitt Peak-Spacewatch MPS 421872
2012 04 28.33672 15 22 12.29 -14 27 14.2 20.1 V 691 – Steward Observatory, Kitt Peak-Spacewatch MPS 422829
2012 04 28.35449 15 22 11.47 -14 27 07.7 20.0 V 691 – Steward Observatory, Kitt Peak-Spacewatch MPS 422829
2012 04 28.37225 15 22 10.55 -14 27 01.7 20.2 V 691 – Steward Observatory, Kitt Peak-Spacewatch MPS 422829
2012 05 09.63026 15 12 34.63 -13 17 59.8 19.3 V E12 – Siding Spring Survey MPS 423912
2012 05 09.64281 15 12 33.94 -13 17 54.0 19.3 V E12 – Siding Spring Survey MPS 423912
2012 05 09.65540 15 12 33.12 -13 17 49.7 19.3 V E12 – Siding Spring Survey MPS 423912
